timestamp,wind_dir_avg,wind_spd_avg,wind_spd_max_dir,wind_spd_gust,battery_voltage,lat,long
2024-03-19 00:04:00+00:00,198.0,9.0,201.0,9.79,12.25,47.59359,-54.27349
2024-03-19 00:14:00+00:00,206.0,8.77,227.0,11.7,12.17,47.59359,-54.27349
2024-03-19 00:24:00+00:00,209.0,9.72,221.0,12.2,12.17,47.59359,-54.27349
2024-03-19 00:34:00+00:00,208.0,9.58,224.0,11.8,12.17,47.59359,-54.27349
2024-03-19 00:44:00+00:00,207.0,8.12,217.0,9.08,12.17,47.59359,-54.27349
2024-03-19 00:54:00+00:00,204.0,8.04,204.0,9.03,12.17,47.59359,-54.27349
2024-03-19 01:04:00+00:00,201.0,8.03,212.0,9.32,12.17,47.59359,-54.27349
2024-03-19 01:14:00+00:00,205.0,8.11,201.0,9.14,12.17,47.59359,-54.27349
2024-03-19 01:24:00+00:00,205.0,8.27,205.0,9.07,12.17,47.59359,-54.27349
2024-03-19 01:34:00+00:00,214.0,8.37,230.0,10.93,12.17,47.59359,-54.27349
2024-03-19 01:44:00+00:00,208.0,7.99,206.0,9.17,12.17,47.59359,-54.27349
2024-03-19 01:54:00+00:00,212.0,7.08,224.0,8.63,12.17,47.59359,-54.27349
2024-03-19 02:04:00+00:00,199.0,7.3,204.0,8.48,12.17,47.59359,-54.27349
2024-03-19 02:14:00+00:00,187.0,6.06,195.0,7.08,12.17,47.59359,-54.27349
2024-03-19 02:24:00+00:00,206.0,7.13,206.0,8.32,12.17,47.59359,-54.27349
2024-03-19 02:34:00+00:00,217.0,7.25,234.0,10.87,12.17,47.59359,-54.27349
2024-03-19 02:44:00+00:00,215.0,7.63,231.0,9.75,12.17,47.59359,-54.27349
2024-03-19 02:54:00+00:00,221.0,7.95,232.0,10.59,12.17,47.59359,-54.27349
2024-03-19 03:04:00+00:00,240.0,10.24,239.0,12.0,12.17,47.59359,-54.27349
2024-03-19 03:14:01+00:00,240.0,10.4,239.0,11.58,12.09,47.59359,-54.27349
2024-03-19 03:24:01+00:00,242.0,9.67,240.0,10.57,12.09,47.59359,-54.27349
2024-03-19 03:34:01+00:00,240.0,10.97,242.0,11.87,12.09,47.59359,-54.27349
2024-03-19 03:44:01+00:00,238.0,10.41,241.0,11.72,12.09,47.59359,-54.27349
2024-03-19 03:54:01+00:00,241.0,9.52,239.0,10.56,12.09,47.59359,-54.27349
2024-03-19 04:04:01+00:00,223.0,6.87,235.0,10.55,12.09,47.59359,-54.27349
2024-03-19 04:14:00+00:00,214.0,6.18,212.0,7.14,12.09,47.59359,-54.27349
2024-03-19 04:24:00+00:00,210.0,6.43,226.0,8.18,12.09,47.59359,-54.27349
2024-03-19 04:34:00+00:00,215.0,6.45,215.0,7.23,12.09,47.59359,-54.27349
2024-03-19 04:44:00+00:00,214.0,7.03,226.0,8.92,12.09,47.59359,-54.27349
2024-03-19 04:54:00+00:00,218.0,8.0,236.0,10.79,12.09,47.59359,-54.27349
2024-03-19 05:04:00+00:00,217.0,8.1,226.0,10.63,12.09,47.59359,-54.27349
2024-03-19 05:14:00+00:00,224.0,10.18,219.0,13.45,12.09,47.59359,-54.27349
2024-03-19 05:24:00+00:00,224.0,11.06,226.0,12.09,12.09,47.59359,-54.27349
2024-03-19 05:34:00+00:00,224.0,10.13,230.0,12.03,12.09,47.59359,-54.27349
2024-03-19 05:44:00+00:00,218.0,8.86,228.0,11.38,12.09,47.59359,-54.27349
2024-03-19 05:54:00+00:00,215.0,8.28,230.0,10.72,12.09,47.59359,-54.27349
2024-03-19 06:04:00+00:00,219.0,8.73,228.0,11.46,12.09,47.59359,-54.27349
2024-03-19 06:14:00+00:00,227.0,8.9,238.0,10.88,12.09,47.59359,-54.27349
2024-03-19 06:24:00+00:00,223.0,8.37,232.0,11.1,12.09,47.59359,-54.27349
2024-03-19 06:34:00+00:00,217.0,7.21,236.0,10.8,12.09,47.59359,-54.27349
2024-03-19 06:44:00+00:00,212.0,6.78,213.0,7.28,12.09,47.59359,-54.27349
2024-03-19 06:54:00+00:00,213.0,7.2,234.0,9.98,12.09,47.59359,-54.27349
2024-03-19 07:04:00+00:00,205.0,6.81,217.0,8.0,12.09,47.59359,-54.27349
2024-03-19 07:14:00+00:00,206.0,7.55,205.0,8.91,12.01,47.59359,-54.27349
2024-03-19 07:24:00+00:00,210.0,7.86,228.0,10.24,12.01,47.59359,-54.27349
2024-03-19 07:34:00+00:00,212.0,7.48,233.0,10.29,12.01,47.59359,-54.27349
2024-03-19 07:44:00+00:00,212.0,7.81,229.0,10.64,12.01,47.59359,-54.27349
2024-03-19 07:54:00+00:00,215.0,8.33,230.0,10.98,12.01,47.59359,-54.27349
2024-03-19 08:04:00+00:00,218.0,8.17,232.0,10.82,12.01,47.59359,-54.27349
2024-03-19 08:14:00+00:00,224.0,9.0,231.0,11.14,12.01,47.59359,-54.27349
2024-03-19 08:24:00+00:00,225.0,9.8,235.0,12.29,12.01,47.59359,-54.27349
2024-03-19 08:34:00+00:00,226.0,10.84,231.0,12.37,12.01,47.59359,-54.27349
2024-03-19 08:44:00+00:00,223.0,8.84,228.0,11.5,12.01,47.59359,-54.27349
2024-03-19 08:54:00+00:00,224.0,8.66,234.0,10.84,12.01,47.59359,-54.27349
2024-03-19 09:04:00+00:00,226.0,10.17,229.0,12.48,12.01,47.59359,-54.27349
2024-03-19 09:14:00+00:00,225.0,9.59,229.0,11.7,11.93,47.59359,-54.27349
2024-03-19 09:24:00+00:00,229.0,9.91,230.0,11.1,11.93,47.59359,-54.27349
2024-03-19 09:34:00+00:00,228.0,9.08,233.0,11.25,11.93,47.59359,-54.27349
2024-03-19 09:44:00+00:00,227.0,9.69,230.0,11.6,11.93,47.59359,-54.27349
2024-03-19 09:54:00+00:00,225.0,8.97,230.0,11.32,11.93,47.59359,-54.27349
2024-03-19 10:04:00+00:00,228.0,9.67,231.0,11.44,11.93,47.59359,-54.27349
2024-03-19 10:14:00+00:00,225.0,8.23,234.0,10.75,11.93,47.59359,-54.27349
2024-03-19 10:24:00+00:00,225.0,9.49,229.0,11.29,11.93,47.59359,-54.27349
2024-03-19 10:34:00+00:00,213.0,6.82,221.0,8.17,11.93,47.59359,-54.27349
2024-03-19 10:44:00+00:00,214.0,8.31,232.0,10.64,11.93,47.59359,-54.27349
2024-03-19 10:54:00+00:00,216.0,7.7,233.0,10.67,11.93,47.59359,-54.27349
2024-03-19 11:04:00+00:00,222.0,8.88,232.0,11.14,11.93,47.59359,-54.27349
2024-03-19 11:14:00+00:00,212.0,7.51,230.0,9.46,12.09,47.59359,-54.27349
2024-03-19 11:24:00+00:00,214.0,7.47,233.0,10.35,12.09,47.59359,-54.27349
2024-03-19 11:34:00+00:00,212.0,7.57,226.0,9.06,12.09,47.59359,-54.27349
2024-03-19 11:44:00+00:00,214.0,6.69,226.0,8.3,12.09,47.59359,-54.27349
2024-03-19 11:54:00+00:00,212.0,6.79,213.0,7.63,12.09,47.59359,-54.27349
2024-03-19 12:04:00+00:00,202.0,7.01,207.0,7.77,12.09,47.59359,-54.27349
2024-03-19 12:14:00+00:00,212.0,7.48,230.0,11.1,12.81,47.59359,-54.27349
2024-03-19 12:24:00+00:00,210.0,7.25,210.0,8.05,12.81,47.59359,-54.27349
2024-03-19 12:34:00+00:00,211.0,7.48,223.0,8.99,12.81,47.59359,-54.27349
2024-03-19 12:44:00+00:00,211.0,6.5,211.0,7.25,12.81,47.59359,-54.27349
2024-03-19 12:54:00+00:00,196.0,6.05,205.0,7.27,12.81,47.59359,-54.27349
2024-03-19 13:04:00+00:00,170.0,5.77,168.0,6.53,12.81,47.59359,-54.27349
2024-03-19 13:14:00+00:00,164.0,6.59,166.0,7.31,12.81,47.59359,-54.27349
2024-03-19 13:24:00+00:00,164.0,6.74,163.0,7.12,12.81,47.59359,-54.27349
2024-03-19 13:34:00+00:00,187.0,7.23,203.0,8.13,12.81,47.59359,-54.27349
2024-03-19 13:44:00+00:00,220.0,9.8,226.0,11.69,12.81,47.59359,-54.27349
2024-03-19 13:54:00+00:00,218.0,9.02,226.0,11.52,12.81,47.59359,-54.27349
2024-03-19 14:04:00+00:00,222.0,8.03,235.0,11.67,12.81,47.59359,-54.27349
2024-03-19 14:14:01+00:00,227.0,10.0,235.0,11.73,12.97,47.59359,-54.27349
2024-03-19 14:24:01+00:00,214.0,8.84,226.0,11.61,12.97,47.59359,-54.27349
2024-03-19 14:34:01+00:00,197.0,6.53,207.0,8.29,12.97,47.59359,-54.27349
2024-03-19 14:44:01+00:00,201.0,7.48,206.0,8.32,12.97,47.59359,-54.27349
2024-03-19 14:54:01+00:00,220.0,9.5,227.0,12.77,12.97,47.59359,-54.27349
2024-03-19 15:04:01+00:00,207.0,8.03,214.0,9.62,12.97,47.59359,-54.27349
2024-03-19 15:14:00+00:00,215.0,8.1,229.0,10.85,13.21,47.59359,-54.27349
2024-03-19 15:24:00+00:00,219.0,7.54,234.0,10.66,13.21,47.59359,-54.27349
2024-03-19 15:34:00+00:00,225.0,6.89,241.0,9.68,13.21,47.59359,-54.27349
2024-03-19 15:44:00+00:00,232.0,5.68,244.0,8.96,13.21,47.59359,-54.27349
2024-03-19 15:54:00+00:00,229.0,5.35,236.0,7.44,13.21,47.59359,-54.27349
2024-03-19 16:04:00+00:00,216.0,5.91,216.0,6.37,13.21,47.59359,-54.27349
2024-03-19 16:14:01+00:00,239.0,4.09,238.0,4.58,13.21,47.59359,-54.27349
2024-03-19 16:24:01+00:00,150.0,3.23,152.0,3.81,13.21,47.59359,-54.27349
2024-03-19 16:34:01+00:00,150.0,3.53,149.0,3.83,13.21,47.59359,-54.27349
2024-03-19 16:44:01+00:00,176.0,5.55,158.0,6.31,13.21,47.59359,-54.27349
2024-03-19 16:54:01+00:00,160.0,6.12,160.0,6.75,13.21,47.59359,-54.27349
2024-03-19 17:04:01+00:00,160.0,5.59,165.0,6.05,13.21,47.59359,-54.27349
2024-03-19 17:14:00+00:00,160.0,5.41,165.0,6.14,13.05,47.59359,-54.27349
2024-03-19 17:24:00+00:00,161.0,5.36,162.0,5.93,13.05,47.59359,-54.27349
2024-03-19 17:34:00+00:00,176.0,4.42,214.0,5.63,13.05,47.59359,-54.27349
2024-03-19 17:44:00+00:00,172.0,5.26,194.0,5.66,13.05,47.59359,-54.27349
2024-03-19 17:54:00+00:00,196.0,4.95,212.0,6.0,13.05,47.59359,-54.27349
2024-03-19 18:04:00+00:00,165.0,5.51,162.0,6.31,13.05,47.59359,-54.27349
2024-03-19 18:14:00+00:00,162.0,5.64,159.0,6.19,12.97,47.59359,-54.27349
2024-03-19 18:24:00+00:00,182.0,5.37,208.0,6.48,12.97,47.59359,-54.27349
2024-03-19 18:34:00+00:00,153.0,4.27,154.0,5.23,12.97,47.59359,-54.27349
2024-03-19 18:44:00+00:00,168.0,4.45,153.0,5.22,12.97,47.59359,-54.27349
2024-03-19 18:54:00+00:00,163.0,5.28,165.0,5.72,12.97,47.59359,-54.27349
2024-03-19 19:04:00+00:00,150.0,3.91,148.0,4.23,12.97,47.59359,-54.27349
2024-03-19 19:14:00+00:00,164.0,3.68,215.0,4.38,13.21,47.59359,-54.27349
2024-03-19 19:24:00+00:00,165.0,4.49,164.0,5.2,13.21,47.59359,-54.27349
2024-03-19 19:34:00+00:00,178.0,5.22,206.0,6.85,13.21,47.59359,-54.27349
2024-03-19 19:44:00+00:00,205.0,5.63,213.0,6.67,13.21,47.59359,-54.27349
2024-03-19 19:54:00+00:00,191.0,4.8,212.0,6.28,13.21,47.59359,-54.27349
2024-03-19 20:04:00+00:00,200.0,4.75,210.0,6.34,13.21,47.59359,-54.27349
2024-03-19 20:14:00+00:00,216.0,5.53,231.0,8.01,13.21,47.59359,-54.27349
2024-03-19 20:24:00+00:00,213.0,4.81,214.0,5.81,13.21,47.59359,-54.27349
2024-03-19 20:34:00+00:00,232.0,6.54,245.0,9.12,13.21,47.59359,-54.27349
2024-03-19 20:44:00+00:00,211.0,3.73,219.0,5.01,13.21,47.59359,-54.27349
2024-03-19 20:54:00+00:00,228.0,5.21,229.0,5.39,13.21,47.59359,-54.27349
2024-03-19 21:04:00+00:00,216.0,5.36,216.0,5.78,13.21,47.59359,-54.27349
2024-03-19 21:14:00+00:00,213.0,5.62,214.0,6.2,12.73,47.59359,-54.27349
2024-03-19 21:24:00+00:00,218.0,5.23,218.0,5.87,12.73,47.59359,-54.27349
2024-03-19 21:34:00+00:00,229.0,4.38,220.0,4.74,12.73,47.59359,-54.27349
2024-03-19 21:44:00+00:00,203.0,4.88,214.0,5.77,12.73,47.59359,-54.27349
2024-03-19 21:54:00+00:00,203.0,4.35,215.0,5.41,12.73,47.59359,-54.27349
2024-03-19 22:04:00+00:00,228.0,4.73,222.0,5.03,12.73,47.59359,-54.27349
2024-03-19 22:14:00+00:00,228.0,4.46,229.0,4.86,12.33,47.59359,-54.27349
2024-03-19 22:24:00+00:00,232.0,4.69,243.0,6.26,12.33,47.59359,-54.27349
2024-03-19 22:34:00+00:00,222.0,4.02,219.0,4.7,12.33,47.59359,-54.27349
2024-03-19 22:44:00+00:00,216.0,3.49,228.0,4.57,12.33,47.59359,-54.27349
2024-03-19 22:54:00+00:00,142.0,1.74,144.0,2.15,12.33,47.59359,-54.27349
2024-03-19 23:04:00+00:00,174.0,3.62,218.0,5.07,12.33,47.59359,-54.27349
2024-03-19 23:14:00+00:00,215.0,4.15,220.0,4.81,12.25,47.59359,-54.27349
2024-03-19 23:24:00+00:00,220.0,5.13,218.0,5.45,12.25,47.59359,-54.27349
2024-03-19 23:34:00+00:00,204.0,4.84,213.0,6.16,12.25,47.59359,-54.27349
2024-03-19 23:44:00+00:00,201.0,6.06,207.0,7.18,12.25,47.59359,-54.27349
2024-03-19 23:54:00+00:00,190.0,5.6,211.0,6.66,12.25,47.59359,-54.27349
